Weather in Izmeri

Russia / Republic of Tatarstan     55˚08′17″N   49˚32′15″E
temp.,
°C
wind,
m/s
gust,
m/s
humid.,
%
clouds,
%
prec.,
mm/h
press.,
hPa
HPBL,
m
16 january, sat
sat1600:00−10˚ene71194100 0.1 1005260
03:00−8˚ene81394100 2.2 1001472
06:00−7˚e61095100 2.6 997421
09:00−7˚ese4795100 4.8 996285
12:00−8˚s699388 0.1 996317
15:00−9˚ssw7129294 0.4 997421
18:00−10˚sw91491100 0.4 998608
21:00−12˚sw8139198 0.3 999510
17 january, sun
sun1700:00−13˚sw7129090 0.1 999403
03:00−13˚wsw7118995 0.2 1001428
06:00−14˚wsw71189100 0.1 1002391
09:00−17˚wsw5109199 0.1 1005223
12:00−16˚w588997 0.0 1009277
15:00−17˚wsw449298 0.0 101153
18:00−20˚wnw339488 0.0 101421
21:00−20˚wnw239179 0.0 101620
18 january, mon
mon1800:00−21˚wnw119295 0.0 101720
03:00−23˚nw119376 0.0 101820
06:00−24˚nnw119439 0.0 101820
09:00−23˚nnw119351 0.0 101920
12:00−22˚ne009290 0.0 1019104
15:00−22˚nne229494 0.0 101820
18:00−22˚n2292100 0.0 101873
21:00−21˚nne3492100 0.0 1018196
19 january, tue
tue1900:00−20˚ne4592100 0.0 1017244
03:00−19˚nne4596100 0.4 1016288
06:00−18˚nne4697100 1.1 1014302
09:00−18˚ne5796100 1.8 1014316
12:00−17˚nne5695100 0.4 1012342
15:00−16˚nne5696100 1.1 1011343
18:00−16˚n4696100 1.1 1011320
21:00−16˚n5795100 1.7 1010310
20 january, wed
wed2000:00−16˚n4596100 0.9 1010318
03:00−17˚nnw4695100 1.4 1010285
06:00−18˚nnw4696100 0.4 1011242
09:00−18˚nnw4693100 0.6 1012230
12:00−19˚nnw469372 0.0 1014209
15:00−20˚nw349461 0.0 101647
18:00−23˚nw349339 0.0 101830
21:00−24˚nw239330 0.0 102020